Waarnemingen

Advertentie
Mijn weer
Andernach, Duitsland (10520): temperatuur & dauwpunt: 19.02.2018 20:00:00 - 25.02.2018 20:00:00 (CET)Andernach, Duitsland (10520): temperatuur 5cm & temperatuur -5cm: 19.02.2018 20:00:00 - 25.02.2018 20:00:00 (CET)Andernach, Duitsland (10520): temperatuur -20cm & temperatuur -100cm: 19.02.2018 20:00:00 - 25.02.2018 20:00:00 (CET)Andernach, Duitsland (10520): windsnelheid & windstoten: 19.02.2018 20:00:00 - 25.02.2018 20:00:00 (CET)Andernach, Duitsland (10520): windrichting: 19.02.2018 20:00:00 - 25.02.2018 20:00:00 (CET)Andernach, Duitsland (10520): luchtdruk: 19.02.2018 20:00:00 - 25.02.2018 20:00:00 (CET)Andernach, Duitsland (10520): zicht: 19.02.2018 20:00:00 - 25.02.2018 20:00:00 (CET)Andernach, Duitsland (10520): Zonneschijnduur: 19.02.2018 20:00:00 - 25.02.2018 20:00:00 (CET)Andernach, Duitsland (10520): neerslag: 19.02.2018 20:00:00 - 25.02.2018 20:00:00 (CET)
Datum & Tijd tt [°C] td [°C] tt 5cm [°C] tt -5cm [°C] tt -20cm [°C] tt -100cm [°C] ff [km/u] ff [kn] fx [km/u] fx [kn] dd ppp [hPa] vv [km] sd [min] rr [mm]
25.02.2018 20:00:00 -1,9 -15,8 -2,9 -0,1 0,4 4,9 16 9 28 15 ONO 1027,6 70 0 0,0
25.02.2018 19:00:00 -1,7 -17,2 -3,0 -0,1 0,4 4,9 16 9 32 17 O 1027,4 70 0 0,0
25.02.2018 18:00:00 -1,2 -16,5 -3,0 -0,1 0,4 4,9 19 10 30 16 O 1027,2 70 57 0,0
25.02.2018 17:00:00 -0,1 -16,6 -0,1 -0,1 0,4 4,9 16 8 27 15 ONO 1026,6 55 60 0,0
25.02.2018 16:00:00 0,6 -17,3 1,9 -0,1 0,4 4,9 17 9 29 16 O 1026,9 32 60 0,0
25.02.2018 15:00:00 0,2 -17,0 2,4 -0,2 0,4 4,9 16 9 31 17 ONO 1027,3 34 60 0,0
25.02.2018 14:00:00 0,5 -15,2 3,5 -0,2 0,4 4,9 14 8 31 17 OZO 1027,7 37 60 0,0
25.02.2018 13:00:00 -0,7 -15,7 2,4 -0,3 0,4 4,9 19 10 32 17 O 1028,5 38 60 0,0
25.02.2018 12:00:00 -1,8 -16,0 1,1 -0,4 0,4 4,9 21 12 32 17 O 1029,1 29 60 0,0
25.02.2018 11:00:00 -2,4 -14,2 -0,3 -0,6 0,4 4,9 18 10 31 17 OZO 1029,4 38 60 0,0
25.02.2018 10:00:00 -3,4 -13,5 -1,5 -1,0 0,5 4,9 19 11 29 16 O 1029,7 30 60 0,0
25.02.2018 09:00:00 -4,5 -13,3 -3,8 -1,8 0,5 4,9 16 9 29 16 O 1029,4 35 60 0,0
25.02.2018 08:00:00 -5,7 -13,0 -7,7 -2,1 0,5 4,9 11 6 22 12 O 1029,3 37 14 0,0
25.02.2018 07:00:00 -5,6 -12,7 -7,9 -1,9 0,5 4,9 16 8 31 17 O 1029,2 38 0 0,0
25.02.2018 06:00:00 -5,2 -12,4 -7,4 -1,7 0,5 5,0 14 8 28 15 O 1028,6 46 0 0,0
25.02.2018 05:00:00 -4,4 -12,1 -6,4 -1,4 0,6 5,0 16 8 27 14 O 1028,2 53 0 0,0
25.02.2018 04:00:00 -4,3 -11,6 -6,5 -1,1 0,6 5,0 14 8 29 16 O 1027,6 58 0 0,0
25.02.2018 03:00:00 -3,7 -11,6 -5,8 -0,8 0,6 5,0 19 10 36 20 O 1027,4 63 0 0,0
25.02.2018 02:00:00 -3,1 -11,6 -4,9 -0,5 0,6 5,0 21 11 39 21 O 1027,1 68 0 0,0
25.02.2018 01:00:00 -2,9 -11,2 -4,8 -0,2 0,6 5,0 21 11 40 22 O 1027,3 70 0 0,0
25.02.2018 00:00:00 -2,1 -11,6 -3,8 -0,1 0,6 5,0 22 12 43 23 O 1026,9 70 0 0,0
24.02.2018 23:00:00 -1,5 -11,8 -3,2 0,0 0,6 5,0 22 12 44 24 O 1026,8 70 0 0,0
24.02.2018 22:00:00 -0,9 -11,5 -2,7 0,0 0,6 5,0 25 13 39 21 O 1026,3 70 0 0,0
24.02.2018 21:00:00 -0,7 -10,6 -2,6 0,0 0,6 5,0 23 12 36 19 O 1026,0 70 0 0,0
24.02.2018 20:00:00 -0,8 -9,3 -3,3 0,0 0,6 5,0 11 6 20 11 ONO 1025,6 55 0 0,0
24.02.2018 19:00:00 -0,4 -9,2 -2,4 0,0 0,6 5,0 13 7 33 18 ONO 1025,5 47 0 0,0
24.02.2018 18:00:00 0,2 -9,4 -1,6 0,0 0,6 5,0 26 14 38 21 O 1025,1 46 43 0,0
24.02.2018 17:00:00 1,8 -9,1 1,5 0,0 0,6 5,0 23 12 49 26 O 1024,3 35 60 0,0
24.02.2018 16:00:00 3,0 -7,4 3,9 0,0 0,6 5,0 21 11 43 23 ONO 1023,9 38 60 0,0
24.02.2018 15:00:00 3,8 -7,2 4,9 -0,1 0,6 5,0 22 12 41 22 O 1023,4 27 60 0,0
24.02.2018 14:00:00 3,5 -8,9 5,5 -0,2 0,6 5,0 21 12 44 24 ONO 1023,4 25 60 0,0
24.02.2018 13:00:00 3,2 -10,1 4,8 -0,2 0,6 5,0 30 16 43 23 O 1023,9 25 60 0,0
24.02.2018 12:00:00 2,7 -10,8 4,5 -0,3 0,6 5,0 22 12 37 20 OZO 1024,0 26 60 0,0
24.02.2018 11:00:00 1,2 -12,5 2,6 -0,4 0,6 5,0 18 10 31 17 O 1024,1 28 60 0,0
24.02.2018 10:00:00 -0,2 -11,6 1,0 -0,7 0,6 5,0 16 9 26 14 OZO 1024,1 20 60 0,0
24.02.2018 09:00:00 -2,4 -12,5 -2,1 -1,3 0,7 5,0 13 7 20 11 ZO 1024,1 23 60 0,0
24.02.2018 08:00:00 -4,2 -12,2 -7,0 -1,7 0,7 5,0 10 6 18 10 ZO 1023,6 20 10 0,0
24.02.2018 07:00:00 -6,3 -11,3 -10,3 -1,5 0,7 5,0 7 4 9 5 ZZW 1023,3 17 0 0,0
24.02.2018 06:00:00 -5,6 -11,3 -10,4 -1,2 0,7 5,0 5 3 14 7 Z 1023,0 19 0 0,0
24.02.2018 05:00:00 -4,6 -11,3 -9,0 -0,9 0,8 5,0 9 5 21 11 O 1022,7 20 0 0,0
24.02.2018 04:00:00 -3,8 -11,3 -6,4 -0,6 0,8 5,0 13 7 21 11 O 1022,4 21 0 0,0
24.02.2018 03:00:00 -3,7 -11,0 -7,9 -0,4 0,8 5,0 9 5 19 11 O 1022,6 19 0 0,0
24.02.2018 02:00:00 -3,4 -10,4 -5,8 -0,2 0,8 5,0 14 8 21 11 O 1022,4 18 0 0,0
24.02.2018 01:00:00 -2,9 -10,2 -5,4 0,0 0,8 5,0 13 7 23 13 O 1022,4 17 0 0,0
24.02.2018 00:00:00 -2,4 -10,1 -5,0 0,0 0,8 5,0 13 7 30 16 O 1022,0 17 0 0,0
23.02.2018 23:00:00 -1,7 -10,6 -3,7 0,0 0,8 5,0 18 10 27 15 ONO 1021,6 21 0 0,0
23.02.2018 22:00:00 -1,1 -11,9 -3,8 0,0 0,8 5,0 13 7 24 13 O 1021,5 30 0 0,0
23.02.2018 21:00:00 -0,3 -13,2 -2,6 0,0 0,8 5,0 16 9 26 14 O 1021,2 38 0 0,0
23.02.2018 20:00:00 -0,2 -12,6 -3,0 0,0 0,8 5,0 13 7 28 15 O 1021,0 44 0 0,0
23.02.2018 19:00:00 0,8 -11,0 -1,8 0,0 0,9 5,0 12 6 21 11 ONO 1020,4 39 0 0,0
23.02.2018 18:00:00 1,5 -10,3 -1,4 0,0 0,8 5,0 9 5 29 15 O 1020,1 35 53 0,0
23.02.2018 17:00:00 2,6 -11,9 1,7 0,0 0,8 5,0 21 12 35 19 O 1019,8 32 60 0,0
23.02.2018 16:00:00 3,1 -11,7 3,4 0,0 0,8 5,0 20 11 29 16 O 1019,8 30 60 0,0
23.02.2018 15:00:00 2,9 -10,6 3,9 0,0 0,8 5,0 24 13 31 17 O 1020,0 29 60 0,0
23.02.2018 14:00:00 2,2 -9,9 4,3 0,0 0,9 5,0 20 11 32 17 O 1020,9 27 60 0,0
23.02.2018 13:00:00 1,8 -9,7 3,8 -0,1 0,9 5,0 23 12 37 20 O 1021,5 25 60 0,0
23.02.2018 12:00:00 0,9 -10,3 3,2 -0,1 0,9 5,0 17 9 36 19 O 1021,9 25 60 0,0
23.02.2018 11:00:00 0,2 -10,4 1,2 -0,1 0,9 5,0 24 13 41 22 ONO 1022,3 24 60 0,0
23.02.2018 10:00:00 -0,6 -10,8 0,1 -0,2 0,9 5,0 27 15 40 22 O 1022,1 36 60 0,0
23.02.2018 09:00:00 -1,4 -10,0 -1,3 -0,3 1,0 5,0 19 11 32 17 O 1022,0 49 60 0,0
23.02.2018 08:00:00 -2,5 -10,3 -5,5 -0,3 1,0 5,0 11 6 24 13 O 1022,1 52 10 0,0
23.02.2018 07:00:00 -2,2 -10,2 -4,7 -0,2 1,1 5,0 15 8 23 12 ONO 1021,8 59 0 0,0
23.02.2018 06:00:00 -2,4 -9,3 -5,5 -0,1 1,1 5,0 12 7 31 17 O 1021,4 54 0 0,0
23.02.2018 05:00:00 -1,6 -9,1 -3,9 0,0 1,2 5,0 18 10 31 17 O 1021,4 52 0 0,0
23.02.2018 04:00:00 -1,3 -9,0 -3,6 0,0 1,2 5,1 16 9 29 16 O 1021,1 55 0 0,0
23.02.2018 03:00:00 -1,1 -8,8 -3,5 0,1 1,2 5,1 15 8 28 15 O 1021,5 54 0 0,0
23.02.2018 02:00:00 -0,8 -8,3 -3,2 0,2 1,3 5,1 14 8 23 12 O 1021,7 47 0 0,0
23.02.2018 01:00:00 -0,8 -8,1 -4,3 0,3 1,3 5,1 9 5 22 12 ONO 1022,0 45 0 0,0
23.02.2018 00:00:00 -0,6 -8,0 -3,7 0,3 1,4 5,1 10 5 24 13 ONO 1022,3 42 0 0,0
22.02.2018 23:00:00 -0,6 -7,9 -4,1 0,4 1,4 5,1 9 5 23 13 ONO 1022,4 42 0 0,0
22.02.2018 22:00:00 0,1 -7,7 -3,1 0,5 1,4 5,1 10 5 24 13 ONO 1022,4 40 0 0,0
22.02.2018 21:00:00 0,2 -7,9 -2,2 0,6 1,5 5,1 11 6 21 11 ONO 1022,1 42 0 0,0
22.02.2018 20:00:00 0,7 -8,0 -2,1 0,7 1,5 5,1 13 7 26 14 ONO 1021,9 47 0 0,0
22.02.2018 19:00:00 1,2 -7,5 -1,7 0,9 1,5 5,1 16 8 35 19 ONO 1021,6 47 0 0,0
22.02.2018 18:00:00 1,9 -7,3 -0,6 1,2 1,4 5,1 16 9 33 18 O 1021,1 43 50 0,0
22.02.2018 17:00:00 3,2 -7,3 2,3 2,0 1,3 5,1 17 9 36 19 ONO 1020,8 41 60 0,0
22.02.2018 16:00:00 3,4 -7,2 3,5 2,0 1,2 5,1 25 13 40 21 O 1020,8 29 58 0,0
22.02.2018 15:00:00 3,2 -7,0 4,0 1,0 1,2 5,1 25 13 41 22 ONO 1021,3 30 49 0,0
22.02.2018 14:00:00 2,8 -7,5 2,1 0,2 1,2 5,1 29 16 45 24 O 1021,9 49 41 0,0
22.02.2018 13:00:00 2,8 -7,1 2,9 0,1 1,2 5,1 22 12 35 19 O 1022,3 32 58 0,0
22.02.2018 12:00:00 2,7 -6,8 4,6 0,1 1,2 5,1 22 12 36 19 O 1022,7 32 60 0,0
22.02.2018 11:00:00 2,2 -6,1 2,9 0,1 1,3 5,1 19 11 30 16 O 1023,1 36 60 0,0
22.02.2018 10:00:00 1,6 -5,3 2,2 0,1 1,3 5,1 16 9 29 16 O 1023,2 29 60 0,0
22.02.2018 09:00:00 -0,6 -5,1 0,0 0,1 1,4 5,1 4 2 10 5 NNW 1023,5 18 60 0,0
22.02.2018 08:00:00 -2,5 -5,3 -6,0 0,1 1,5 5,1 5 3 9 5 NW 1023,3 12 5 0,0
22.02.2018 07:00:00 -2,5 -5,2 -7,7 0,2 1,5 5,1 5 3 10 5 NNW 1022,8 15 0 0,0
22.02.2018 06:00:00 -1,5 -5,2 -6,8 0,3 1,6 5,1 5 3 8 5 NNO 1022,8 19 0 0,0
22.02.2018 05:00:00 -2,1 -4,8 -6,6 0,4 1,7 5,1 5 3 9 5 NNW 1022,6 14 0 0,0
22.02.2018 04:00:00 -1,6 -5,0 -5,7 0,4 1,8 5,1 6 4 10 5 NNW 1022,7 16 0 0,0
22.02.2018 03:00:00 -1,0 -5,8 -5,4 0,5 1,8 5,1 4 2 10 5 NNW 1023,0 19 0 0,0
22.02.2018 02:00:00 -0,6 -5,6 -5,6 0,6 1,9 5,1 6 3 14 8 ONO 1023,3 18 0 0,0
22.02.2018 01:00:00 -0,1 -6,0 -3,6 0,8 2,0 5,1 9 5 19 11 ONO 1023,6 19 0 0,0
22.02.2018 00:00:00 0,2 -5,7 -3,2 0,9 2,1 5,1 8 4 23 13 ONO 1023,7 19 0 0,0
21.02.2018 23:00:00 1,1 -5,5 -1,4 1,0 2,2 5,1 13 7 22 12 O 1023,7 19 0 0,0
21.02.2018 22:00:00 1,2 -5,0 -2,3 1,2 2,3 5,1 9 5 15 8 O 1023,5 16 0 0,0
21.02.2018 21:00:00 2,3 -5,0 -1,1 1,4 2,4 5,1 10 6 20 11 O 1023,2 16 0 0,0
21.02.2018 20:00:00 3,2 -4,8 0,5 1,9 2,5 5,1 11 6 16 8 ONO 1022,8 18 0 0,0
21.02.2018 19:00:00 4,2 -3,6 1,5 2,7 2,5 5,1 8 5 17 9 NNW 1022,4 12 0 0,0
21.02.2018 18:00:00 5,1 -4,0 2,4 3,7 2,4 5,1 12 7 21 11 NNW 1021,9 13 36 0,0
21.02.2018 17:00:00 6,0 -5,3 4,9 4,6 2,1 5,1 11 6 25 13 N 1021,8 18 60 0,0
21.02.2018 16:00:00 5,9 -4,3 6,3 5,2 1,8 5,1 14 7 26 14 N 1021,9 14 60 0,0
21.02.2018 15:00:00 6,2 -4,7 7,7 5,2 1,5 5,1 12 7 23 13 N 1022,4 17 60 0,0
21.02.2018 14:00:00 5,6 -4,8 8,1 4,2 1,3 5,1 12 7 22 12 N 1023,0 14 60 0,0
21.02.2018 13:00:00 4,7 -5,3 7,8 1,8 1,3 5,1 11 6 19 11 N 1023,5 15 60 0,0
21.02.2018 12:00:00 3,7 -4,8 6,0 0,4 1,3 5,1 11 6 21 12 NNO 1023,9 13 60 0,0
21.02.2018 11:00:00 2,5 -4,3 4,0 0,4 1,4 5,1 9 5 20 11 N 1024,2 10 60 0,0
21.02.2018 10:00:00 0,6 -3,8 1,9 0,4 1,4 5,1 14 8 24 13 NNW 1024,8 8 60 0,0
21.02.2018 09:00:00 -0,8 -3,6 -1,0 0,4 1,5 5,1 13 7 23 12 NNW 1024,6 7 29 0,0
21.02.2018 08:00:00 -1,1 -4,0 -2,9 0,4 1,5 5,1 10 5 20 11 NNW 1024,0 7 0 0,0
21.02.2018 07:00:00 -1,1 -4,0 -2,7 0,5 1,6 5,1 16 8 28 15 NW 1023,9 7 0 0,0
21.02.2018 06:00:00 -1,1 -3,8 -3,4 0,5 1,7 5,1 8 4 13 7 NW 1023,6 8 0 0,0
21.02.2018 05:00:00 -0,9 -3,5 -4,3 0,6 1,7 5,1 6 3 9 5 NW 1023,0 8 0 0,0
21.02.2018 04:00:00 -0,2 -3,9 -1,0 0,6 1,8 5,1 9 5 19 11 NW 1023,2 9 0 0,0
21.02.2018 03:00:00 -0,9 -4,4 -4,2 0,7 1,9 5,1 2 1 17 9 O 1022,9 7 0 0,0
21.02.2018 02:00:00 0,9 -4,1 -1,0 0,8 2,0 5,1 8 4 13 7 ONO 1022,6 9 0 0,0
21.02.2018 01:00:00 -0,6 -3,9 -3,1 0,9 2,1 5,1 4 2 7 4 WNW 1022,1 10 0 0,0
21.02.2018 00:00:00 -0,7 -3,6 -3,8 1,0 2,2 5,1 5 3 9 5 Z 1021,5 10 0 0,0
20.02.2018 23:00:00 -0,4 -3,3 -4,4 1,2 2,3 5,1 3 2 11 6 ZO 1020,9 10 0 0,0
20.02.2018 22:00:00 1,6 -3,5 -2,5 1,5 2,4 5,1 5 3 12 7 ONO 1020,4 11 0 0,0
20.02.2018 21:00:00 2,4 -3,1 -2,1 2,2 2,4 5,2 5 3 22 12 ONO 1020,0 12 0 0,0
20.02.2018 20:00:00 3,6 -3,3 2,3 2,6 2,5 5,2 18 10 28 15 OZO 1019,5 14 0 0,0
20.02.2018 19:00:00 4,2 -2,4 2,3 3,0 2,5 5,2 7 4 16 9 NNW 1018,4 15 0 0,0
20.02.2018 18:00:00 4,7 -3,1 1,9 3,9 2,3 5,2 10 5 17 9 NNW 1017,8 20 28 0,0
20.02.2018 17:00:00 5,7 -4,0 3,7 5,1 2,1 5,2 6 4 19 10 N 1017,5 29 31 0,0
20.02.2018 16:00:00 6,1 -4,4 6,7 6,1 1,7 5,2 8 4 19 11 NO 1017,0 25 54 0,0
20.02.2018 15:00:00 5,9 -3,1 7,1 6,2 1,3 5,2 4 2 14 8 N 1017,4 21 52 0,0
20.02.2018 14:00:00 5,3 -2,9 7,3 4,5 1,0 5,2 7 4 11 6 ZZW 1017,7 14 60 0,0
20.02.2018 13:00:00 4,4 -3,5 7,1 1,3 1,0 5,2 4 2 8 5 O 1018,1 13 60 0,0
20.02.2018 12:00:00 3,4 -1,9 4,0 0,3 1,0 5,2 4 2 9 5 ZZO 1018,6 10 60 0,0
20.02.2018 11:00:00 1,6 -1,8 1,9 0,3 1,0 5,2 4 2 9 5 ZZO 1018,7 7 60 0,0
20.02.2018 10:00:00 0,0 -2,3 0,9 0,3 1,1 5,2 2 1 5 3 W 1018,8 7 43 0,0
20.02.2018 09:00:00 -2,4 -3,5 -3,6 0,3 1,1 5,2 4 2 6 3 ZZW 1018,8 6 0 0,0
20.02.2018 08:00:00 -2,9 -3,7 -4,0 0,3 1,2 5,2 0 0 7 4 N 1018,7 6 0 0,0
20.02.2018 07:00:00 -3,1 -4,1 -4,0 0,3 1,2 5,2 6 3 7 4 ZZW 1018,6 7 0 0,0
20.02.2018 06:00:00 -3,2 -4,0 -4,1 0,3 1,2 5,2 5 3 6 4 ZZW 1018,5 7 0 0,0
20.02.2018 05:00:00 -3,1 -3,8 -6,5 0,4 1,2 5,2 4 2 5 3 ZZW 1018,1 6 0 0,0
20.02.2018 04:00:00 -2,9 -3,3 -6,1 0,4 1,3 5,2 3 2 6 3 Z 1018,0 4,8 0 0,0
20.02.2018 03:00:00 -2,1 -2,7 -4,8 0,5 1,3 5,2 4 2 5 3 ZW 1018,1 6 0 0,0
20.02.2018 02:00:00 -1,9 -2,7 -4,7 0,5 1,3 5,2 3 2 6 3 ZW 1018,2 7 0 0,0
20.02.2018 01:00:00 -1,2 -1,9 -4,6 0,6 1,4 5,2 4 2 6 3 ZZW 1018,3 7 0 0,0
20.02.2018 00:00:00 -0,7 -1,9 -3,8 0,6 1,4 5,2 3 2 5 3 W 1018,0 10 0 0,0
19.02.2018 23:00:00 -0,2 -1,8 -2,0 0,7 1,4 5,2 2 1 6 3 ZO 1018,2 8 0 0,0
19.02.2018 22:00:00 0,5 -1,5 -1,9 0,7 1,5 5,2 0 0 3 2 N 1018,4 11 0 0,0
19.02.2018 21:00:00 0,6 -1,1 -1,7 1,0 1,5 5,2 0 0 4 2 N 1018,6 10 0 0,0
19.02.2018 20:00:00 1,0 -1,6 -1,6 1,3 1,5 5,2 2 1 4 2 Z 1018,4 12 0 0,0

tt = temperatuur
td = dauwpunt
tt 5cm = temperatuur 5cm
tt -5cm = temperatuur -5cm
tt -20cm = temperatuur -20cm
tt -100cm = temperatuur -100cm
ff = windsnelheid
fx = windstoten
dd = windrichting
ppp = luchtdruk
vv = zicht
sd = Zonneschijnduur
rr = neerslag

Weerstations in de omgeving